Volver al catálogo

STARLINK-34218

ActivoComunicacionesVLEO
NORAD 64338·PAYLOAD·🇺🇸 United States

Lanzado Jun 10, 2025 desde Cape Canaveral Space Force Station

Loading…

Próximos Pases (próximas 24 horas)

TLE

ActualizadoSource: CelesTrak SupGP

Época: Sep 15, 2026, 02:53 UTC

1 64338C 25124X   26258.12062500  .00059255  00000+0  21462-2 0  2587
2 64338  42.9996 128.2846 0001490 276.6600  68.8277 15.27549440    17

Sigue STARLINK-34218 en tiempo real con AllMySat

Download on the App Store